Portada
METAR-TAF:

METAR-TAF

Aeroports :

Crystal Airport

Minneapolis-Crystal, Minnesota, Estats Units d'Amèrica

latitud: 45-03-45N, longitud: 093-21-03W, altitud: 264 m

Observació

L'informe es va fer fa 18 minuts, a les 17:53 UTC
Vent 9 kt del Sud/Sud-Oest
Temperatura -6°C
Humitat 93%
Pressió 1020 hPa
Visibilitat: 9.7 km
Cel cobert a una alçada de 700 ft
boirina

METAR: KMIC 101753Z 21009KT 6SM BR OVC007 M06/M07 A3012 RMK AO2 SLP216 I6001 T10561072 11056 21100 58005

Hora: 12:11 (18:11 UTC)


TAF: manca

Observacions i pronòstics meteorològics de més de 4000 aeroports (METAR i TAF).

Les estacions disponibles són els punts grocs i vermells al mapa.

Posi el ratolí al punt desitjat per veure el nom de l'estació.

Feu clic per veure les observacions i els pronòstics meteorològics.

Per canviar el mapa: feu clic els botons verds amb una creu de color negre per apropar; al botó verd amb un guió per allunyar la imatge; o en les fletxes verdes per a mapes adjacents.


METAR-TAF: